Hourly Data Report for October 12, 2015

All times are specified in Local Standard Time (LST). Add 1 hour to adjust for Daylight Saving Time where and when it is observed.

TORONTO INTL A
ONTARIO

43°40'36.000" N
79°37'50.000" W
173.40 m
6158731
71624
YYZ

Download Data

Hourly Data (October 2015)
Hourly Data Report for October 12, 2015
Temp Definition
°C
Dew Point Temp Definition
°C
Rel Hum Definition
%
Wind Dir Definition
10's deg

Wind Spd Definition
km/h
Visibility Definition
km
Stn Press Definition
kPa
Hmdx Definition


Wind Chill Definition


Weather Definition


TIME
00:00 Legend Double Dagger 16.3 8.1 58 19 12 24.1 98.57     LegendNANA
01:00 Legend Double Dagger 16.0 8.6 61 21 15 24.1 98.57     Clear
02:00 Legend Double Dagger 15.5 9.0 65 22 16 24.1 98.56     LegendNANA
03:00 Legend Double Dagger 15.1 9.1 67 21 15 24.1 98.53     LegendNANA
04:00 Legend Double Dagger 13.8 9.5 75 22 13 24.1 98.50     Clear
05:00 Legend Double Dagger 13.8 9.7 76 20 9 24.1 98.53     LegendNANA
06:00 Legend Double Dagger 13.8 10.1 78 21 12 24.1 98.50     LegendNANA
07:00 Legend Double Dagger 13.3 10.3 82 22 10 24.1 98.52     Clear
08:00 Legend Double Dagger 15.7 11.1 74 22 16 24.1 98.53     LegendNANA
09:00 Legend Double Dagger 17.9 10.8 63 20 26 24.1 98.44     LegendNANA
10:00 Legend Double Dagger 19.6 10.4 55 19 20 24.1 98.41     Mainly Clear
11:00 Legend Double Dagger 21.1 10.4 50 19 21 24.1 98.31     LegendNANA
12:00 Legend Double Dagger 22.0 11.0 49 18 17 24.1 98.22     LegendNANA
13:00 Legend Double Dagger 22.1 10.4 47 18 22 24.1 98.11     Mainly Clear
14:00 Legend Double Dagger 22.3 8.2 40 20 36 24.1 98.02     LegendNANA
15:00 Legend Double Dagger 22.3 8.6 41 20 29 24.1 97.97     LegendNANA
16:00 Legend Double Dagger 21.7 6.9 38 20 23 24.1 97.97     Mostly Cloudy
17:00 Legend Double Dagger 21.4 6.7 38 16 14 24.1 97.89     LegendNANA
18:00 Legend Double Dagger 21.0 7.0 40 20 9 24.1 97.92     LegendNANA
19:00 Legend Double Dagger 20.5 8.0 44 14 10 24.1 97.86     Thunderstorms
20:00 Legend Double Dagger 18.4 11.3 63 15 13 24.1 97.80     LegendNANA
21:00 Legend Double Dagger 18.0 11.2 64 15 13 24.1 97.74     LegendNANA
22:00 Legend Double Dagger 17.6 11.7 68 15 13 24.1 97.66     Mostly Cloudy
23:00 Legend Double Dagger 18.0 10.9 63 16 14 24.1 97.57     LegendNANA

Notes on Data Quality.

Legend

  • E = Estimated
  • M = Missing
  • NA = Not Available
  • ‡ = Partner data that is not subject to review by the National Climate Archives
Date modified: